Simultaneous Nadir Overpasses (SNOs) Predictions

Prediction of SNOs between AQUA and NOAA-19 Satellite Orbit:

Table of predicted SNOs for the next 14.0 days since TLE Epoch: 11/21/2020
Index Date (AQUA) Time (AQUA) Lat,Lon (AQUA) SZA (AQUA ) Date (NOAA-19) Time (NOAA-19) Lat,Lon (NOAA-19) SZA (NOAA-19 ) Distance(km) Time Diff (sec)
1 11/21/2020 18:25:44 -79.33, 57.83 79.85 11/21/2020 18:24:44 -79.36, 57.80 79.80 3.31 60
2 11/21/2020 19:15:12 79.36,-134.70 100.20 11/21/2020 19:15:38 79.37,-134.80 100.22 2.70 26
3 11/24/2020 00:48:56 -79.36, -38.13 79.33 11/24/2020 00:48:58 -79.37, -38.07 79.32 2.14 2
4 11/26/2020 06:22:41 79.34, 58.54 101.09 11/26/2020 06:22:07 79.36, 58.61 101.11 2.56 34
5 11/26/2020 07:12:08 -79.38,-134.12 78.85 11/26/2020 07:13:12 -79.38,-133.95 78.88 3.47 64
6 11/28/2020 11:56:25 -79.34, 155.07 78.50 11/28/2020 11:55:27 -79.34, 155.24 78.49 3.40 58
7 11/28/2020 12:45:53 79.37, -37.48 101.55 11/28/2020 12:46:22 79.34, -37.50 101.52 3.44 29
8 11/30/2020 18:19:36 -79.34, 59.29 78.12 11/30/2020 18:19:41 -79.35, 59.32 78.11 0.99 5
9 12/02/2020 23:53:21 79.34, 155.86 102.23 12/02/2020 23:52:51 79.33, 155.90 102.22 1.93 30
